Regional Weather Roundup
Issued by NWS

Current Version | Previous Version | Text Only | Print | Product List | Glossary On
Versions: 1 2 3 4 5 6 7 8 9 10 11 12 13 14 15 16 17 18 19 20 21 22 23 24 25 26 27 28 29 30 31 32 33 34 35 36 37 38 39 40 41 42 43 44 45 46 47 48 49 50
000
ASUS45 KABQ 271110
RWRNM
WEATHER ROUNDUP FOR NEW MEXICO
NATIONAL WEATHER SERVICE ALBUQUERQUE NM
500 AM MDT MON APR 27 2015

NOTE: "FAIR" MEANS FEW OR NO CLOUDS BELOW 12,000 FEET AGL WITH NO
       SIGNIFICANT WEATHER OR OBSTRUCTIONS TO VISION.

      THIS PRODUCT IS RELEASED AS TWO VERSIONS.  ONE VERSION NEAR
      THE TOP OF THE HOUR CONTAINING PRELIMINARY DATA FROM ALBUQUERQUE
      AND OTHER STATIONS.  A FINAL VERSION WITH ADDITIONAL DATA IS
      ISSUED ABOUT 10 MINUTES AFTER THE HOUR.

NMZ501-503-504-510>518-271200-
NORTHWEST PLATEAU/NORTHCENTRAL MOUNTAINS

CITY           SKY/WX    TMP DP  RH WIND       PRES   REMARKS
FARMINGTON     CLEAR     38  36  92 N5        29.95R WCI  34
LOS ALAMOS     CLOUDY    38  35  91 N17G26    29.97S WCI  28
SANTA FE       MOCLDY    38  35  89 N12       29.94R WCI  30
TAOS           CLOUDY    36  28  75 CALM      29.99S
ANGEL FIRE     LGT SNOW  32  31  99 N5        29.95F WCI  27

$$
NMZ402-403-502-505>509-271200-
WESTCENTRAL MOUNTAINS/SOUTHWEST MOUNTAINS

CITY           SKY/WX    TMP DP  RH WIND       PRES   REMARKS
GALLUP         MOCLDY    43  38  82 NE12      29.95R
GRANTS         CLOUDY    38  38 100 CALM      29.96S
SILVER CITY      N/A     37  36  93 NW7       29.92S WCI  32

$$
NMZ407-409-411-412-271200-
SOUTHERN DESERTS

CITY           SKY/WX    TMP DP  RH WIND       PRES   REMARKS
LORDSBURG      FAIR      36  36 100 CALM      29.91S
DEMING         PTCLDY    41  37  86 SW10      29.88S
LAS CRUCES     PTCLDY    39  34  84 N3        29.88R
HOLLOMAN AFB   CLOUDY    48  43  81 N9        29.84S
ALAMOGORDO     CLOUDY    48  41  76 N9        29.86S
T OR C         MOCLDY    45  42  89 CALM      29.88R

$$
NMZ519>523-271200-
CENTRAL VALLEYS/CENTRAL HIGHLANDS

CITY           SKY/WX    TMP DP  RH WIND       PRES   REMARKS
ALBUQUERQUE    MOCLDY    44  39  82 W10       29.93R
DOUBLE EAGLE   MOCLDY    40  38  92 NE6       29.94S
MORIARTY ARPT  FAIR      35  32  90 N6        29.94F WCI  30
CLINES CORNERS PTCLDY    33  31  92 NE15      29.92R WCI  23
BELEN          PTSUNNY   41  39  90 N5        29.92S
SOCORRO        MOCLDY    43  42  94 N7        29.90S

$$
NMZ524>526-539-540-271200-
SOUTHCENTRAL MOUNTAINS

CITY           SKY/WX    TMP DP  RH WIND       PRES   REMARKS
RUIDOSO        CLOUDY    37  36  93 NW8       29.90F WCI  31

$$
NMZ527>531-271200-
NORTHEAST HIGHLANDS/NORTHEAST PLAINS

CITY           SKY/WX    TMP DP  RH WIND       PRES   REMARKS
LAS VEGAS      LGT SNOW  32  31  96 N12       29.97R VSB 3/4 WCI  23
RATON          CLOUDY    39  35  86 N13       29.97S WCI  31
CLAYTON        LGT RAIN  41  39  93 NE24G33   29.94S

$$
NMZ532>537-271200-
EASTCENTRAL PLAINS

CITY           SKY/WX    TMP DP  RH WIND       PRES   REMARKS
TUCUMCARI      RAIN      46  44  93 NE18      29.89R FOG
CANNON AFB     MOCLDY    47  45  94 NE10      29.84S
CLOVIS AIRPORT CLOUDY    46  43  87 NE13      29.84R

$$
NMZ028-029-538-271200-
SOUTHEAST PLAINS

CITY           SKY/WX    TMP DP  RH WIND       PRES   REMARKS
ROSWELL        CLEAR     48  40  73 N10       29.79R
ARTESIA        PTCLDY    48  37  66 NW9       29.81S
CARLSBAD       CLEAR     44  34  67 W8        29.79S
HOBBS          CLEAR     41  39  93 N5        29.79S


$$


USA.gov is the U.S. government's official web portal to all federal, state and local government web resources and services.